Location: Monfort
(47.1967°N, 0.2115°W)
Time: 08:56:53
(UTC+00:00)

GEOS 3 Rocket - Pass Details

Date: 24 October 2020
Orbit: 770 x 850 km, 115.0° (Epoch: 27 November)

Event Time Altitude Azimuth Distance (km) Brightness Sun altitude
Exits shadow 18:36:46 17° 138° (SE) 1,986 5.2 -17.6°
Maximum altitude 18:40:57 88° 48° (NE) 845 3.6 -18.3°
Drops below altitude 10° 18:46:22 10° 321° (NW) 2,476 6.7 -19.3°
Sets 18:48:43 0° 321° (NW) 3,419 7.5 -19.7°
